Time,TemperatureF,DewpointF,PressureIn,WindDirection,WindDirectionDegrees,WindSpeedMPH,WindSpeedGustMPH,Humidity,HourlyPrecipIn,Conditions,Clouds,dailyrainin,SolarRadiationWatts/m^2,SoftwareType,DateUTC
2013-01-04 00:06:00,35.6,26.1,30.14,WSW,253,4.0,10.0,68,0.00,,,0.00,0,Wunderground v.1.15,2013-01-04 05:06:00,
2013-01-04 00:11:00,35.5,26.0,30.14,WSW,257,5.0,10.0,68,0.00,,,0.00,0,Wunderground v.1.15,2013-01-04 05:11:00,
2013-01-04 00:20:00,35.5,26.0,30.14,West,261,5.0,5.0,68,0.00,,,0.00,0,Wunderground v.1.15,2013-01-04 05:20:00,
2013-01-04 00:25:00,35.3,26.1,30.14,West,264,4.0,10.0,69,0.00,,,0.00,0,Wunderground v.1.15,2013-01-04 05:25:00,
2013-01-04 00:31:00,35.3,26.1,30.14,West,262,4.0,10.0,69,0.00,,,0.00,0,Wunderground v.1.15,2013-01-04 05:31:00,
2013-01-04 00:36:00,35.3,26.1,30.14,West,269,4.0,10.0,69,0.00,,,0.00,0,Wunderground v.1.15,2013-01-04 05:36:00,
2013-01-04 00:45:00,35.0,25.9,30.14,West,277,4.0,10.0,69,0.00,,,0.00,0,Wunderground v.1.15,2013-01-04 05:45:00,
2013-01-04 00:55:00,34.6,25.8,30.14,West,276,4.0,10.0,70,0.00,,,0.00,0,Wunderground v.1.15,2013-01-04 05:55:00,
2013-01-04 01:00:00,34.3,25.5,30.13,West,276,3.0,3.0,70,0.00,,,0.00,0,Wunderground v.1.15,2013-01-04 06:00:00,
2013-01-04 01:05:00,34.1,25.3,30.13,West,276,2.0,10.0,70,0.00,,,0.00,0,Wunderground v.1.15,2013-01-04 06:05:00,
2013-01-04 01:11:00,34.0,25.6,30.13,West,276,2.0,2.0,71,0.00,,,0.00,0,Wunderground v.1.15,2013-01-04 06:11:00,
2013-01-04 01:16:00,33.8,25.4,30.13,West,276,2.0,9.0,71,0.00,,,0.00,0,Wunderground v.1.15,2013-01-04 06:16:00,
2013-01-04 01:21:00,33.8,25.4,30.13,West,276,2.0,9.0,71,0.00,,,0.00,0,Wunderground v.1.15,2013-01-04 06:21:00,
2013-01-04 01:30:00,33.7,25.0,30.13,West,274,3.0,3.0,70,0.00,,,0.00,0,Wunderground v.1.15,2013-01-04 06:30:00,
2013-01-04 01:35:00,33.5,24.8,30.13,West,274,2.0,9.0,70,0.00,,,0.00,0,Wunderground v.1.15,2013-01-04 06:35:00,
2013-01-04 01:41:00,33.5,24.8,30.13,West,274,1.0,9.0,70,0.00,,,0.00,0,Wunderground v.1.15,2013-01-04 06:41:00,
2013-01-04 01:46:00,33.2,24.5,30.14,West,274,1.0,9.0,70,0.00,,,0.00,0,Wunderground v.1.15,2013-01-04 06:46:00,
2013-01-04 01:51:00,33.1,24.7,30.14,West,274,0.0,7.0,71,0.00,,,0.00,0,Wunderground v.1.15,2013-01-04 06:51:00,
2013-01-04 02:00:00,32.5,24.1,30.14,West,274,1.0,1.0,71,0.00,,,0.00,0,Wunderground v.1.15,2013-01-04 07:00:00,
2013-01-04 02:05:00,32.5,24.1,30.14,West,274,1.0,7.0,71,0.00,,,0.00,0,Wunderground v.1.15,2013-01-04 07:05:00,
2013-01-04 02:10:00,32.4,23.7,30.14,West,275,1.0,7.0,70,0.00,,,0.00,0,Wunderground v.1.15,2013-01-04 07:10:00,
2013-01-04 02:16:00,32.5,23.5,30.14,West,275,3.0,7.0,69,0.00,,,0.00,0,Wunderground v.1.15,2013-01-04 07:16:00,
2013-01-04 02:21:00,32.7,23.3,30.14,West,275,3.0,6.0,68,0.00,,,0.00,0,Wunderground v.1.15,2013-01-04 07:21:00,
2013-01-04 02:26:00,32.9,23.1,30.14,West,275,2.0,6.0,67,0.00,,,0.00,0,Wunderground v.1.15,2013-01-04 07:26:00,
2013-01-04 02:35:00,33.1,23.0,30.15,West,276,3.0,6.0,66,0.00,,,0.00,0,Wunderground v.1.15,2013-01-04 07:35:00,
2013-01-04 02:40:00,33.2,23.4,30.15,West,276,3.0,6.0,67,0.00,,,0.00,0,Wunderground v.1.15,2013-01-04 07:40:00,
2013-01-04 02:46:00,33.4,23.6,30.15,West,277,4.0,7.0,67,0.00,,,0.00,0,Wunderground v.1.15,2013-01-04 07:46:00,
2013-01-04 02:51:00,33.2,23.4,30.15,West,277,3.0,3.0,67,0.00,,,0.00,0,Wunderground v.1.15,2013-01-04 07:51:00,
2013-01-04 02:56:00,33.4,23.3,30.15,West,281,4.0,5.0,66,0.00,,,0.00,0,Wunderground v.1.15,2013-01-04 07:56:00,
2013-01-04 03:06:00,34.0,23.1,30.15,WNW,299,5.0,8.0,64,0.00,,,0.00,0,Wunderground v.1.15,2013-01-04 08:06:00,
2013-01-04 03:15:00,34.6,22.5,30.15,WNW,288,5.0,10.0,61,0.00,,,0.00,0,Wunderground v.1.15,2013-01-04 08:15:00,
2013-01-04 03:20:00,35.0,22.5,30.15,WNW,302,5.0,5.0,60,0.00,,,0.00,0,Wunderground v.1.15,2013-01-04 08:20:00,
2013-01-04 03:25:00,35.6,21.9,30.15,WNW,293,6.0,7.0,57,0.00,,,0.00,0,Wunderground v.1.15,2013-01-04 08:25:00,
2013-01-04 03:30:00,35.9,21.7,30.15,NW,306,7.0,19.0,56,0.00,,,0.00,0,Wunderground v.1.15,2013-01-04 08:30:00,
2013-01-04 03:36:00,36.3,20.8,30.15,WNW,303,8.0,19.0,53,0.00,,,0.00,0,Wunderground v.1.15,2013-01-04 08:36:00,
2013-01-04 03:41:00,36.6,21.1,30.15,West,272,10.0,10.0,53,0.00,,,0.00,0,Wunderground v.1.15,2013-01-04 08:41:00,
2013-01-04 03:50:00,36.6,20.6,30.15,West,279,9.0,9.0,52,0.00,,,0.00,0,Wunderground v.1.15,2013-01-04 08:50:00,
2013-01-04 03:55:00,36.6,20.6,30.15,WNW,292,10.0,10.0,52,0.00,,,0.00,0,Wunderground v.1.15,2013-01-04 08:55:00,
2013-01-04 04:01:00,36.6,20.6,30.15,West,269,9.0,20.0,52,0.00,,,0.00,0,Wunderground v.1.15,2013-01-04 09:01:00,
2013-01-04 04:06:00,36.5,21.0,30.15,WNW,294,7.0,20.0,53,0.00,,,0.00,0,Wunderground v.1.15,2013-01-04 09:06:00,
2013-01-04 04:15:00,36.3,20.8,30.15,WNW,282,7.0,20.0,53,0.00,,,0.00,0,Wunderground v.1.15,2013-01-04 09:15:00,
2013-01-04 04:20:00,36.2,20.7,30.15,NW,306,6.0,20.0,53,0.00,,,0.00,0,Wunderground v.1.15,2013-01-04 09:20:00,
2013-01-04 04:25:00,36.2,20.7,30.15,WNW,292,6.0,20.0,53,0.00,,,0.00,0,Wunderground v.1.15,2013-01-04 09:25:00,
2013-01-04 04:30:00,36.0,20.9,30.15,WNW,293,5.0,5.0,54,0.00,,,0.00,0,Wunderground v.1.15,2013-01-04 09:30:00,
2013-01-04 04:35:00,35.9,20.9,30.15,WNW,288,5.0,20.0,54,0.00,,,0.00,0,Wunderground v.1.15,2013-01-04 09:35:00,
2013-01-04 04:40:00,35.8,21.2,30.15,WNW,295,4.0,20.0,55,0.00,,,0.00,0,Wunderground v.1.15,2013-01-04 09:40:00,
2013-01-04 04:46:00,35.6,21.0,30.15,WNW,295,4.0,20.0,55,0.00,,,0.00,0,Wunderground v.1.15,2013-01-04 09:46:00,
2013-01-04 04:51:00,35.6,21.0,30.15,WNW,298,5.0,5.0,55,0.00,,,0.00,0,Wunderground v.1.15,2013-01-04 09:51:00,
2013-01-04 04:56:00,35.5,21.3,30.15,NW,305,4.0,15.0,56,0.00,,,0.00,0,Wunderground v.1.15,2013-01-04 09:56:00,
2013-01-04 05:05:00,35.5,20.9,30.15,NW,312,5.0,15.0,55,0.00,,,0.00,0,Wunderground v.1.15,2013-01-04 10:05:00,
2013-01-04 05:10:00,35.5,20.9,30.15,WNW,292,5.0,5.0,55,0.00,,,0.00,0,Wunderground v.1.15,2013-01-04 10:10:00,
2013-01-04 05:15:00,35.3,21.2,30.15,NW,318,5.0,12.0,56,0.00,,,0.00,0,Wunderground v.1.15,2013-01-04 10:15:00,
2013-01-04 05:21:00,35.3,21.2,30.15,WNW,303,5.0,12.0,56,0.00,,,0.00,0,Wunderground v.1.15,2013-01-04 10:21:00,
2013-01-04 05:26:00,35.3,21.2,30.15,NW,306,7.0,12.0,56,0.00,,,0.00,0,Wunderground v.1.15,2013-01-04 10:26:00,
2013-01-04 05:35:00,35.2,21.5,30.15,WNW,300,8.0,12.0,57,0.00,,,0.00,0,Wunderground v.1.15,2013-01-04 10:35:00,
2013-01-04 05:40:00,35.3,21.6,30.15,WNW,302,6.0,12.0,57,0.00,,,0.00,0,Wunderground v.1.15,2013-01-04 10:40:00,
2013-01-04 05:45:00,35.3,21.2,30.15,NW,309,6.0,16.0,56,0.00,,,0.00,0,Wunderground v.1.15,2013-01-04 10:45:00,
2013-01-04 05:50:00,35.3,21.2,30.15,NW,312,6.0,16.0,56,0.00,,,0.00,0,Wunderground v.1.15,2013-01-04 10:50:00,
2013-01-04 05:56:00,35.3,21.2,30.15,NW,321,6.0,16.0,56,0.00,,,0.00,0,Wunderground v.1.15,2013-01-04 10:56:00,
2013-01-04 06:01:00,35.3,20.7,30.15,NW,315,8.0,16.0,55,0.00,,,0.00,0,Wunderground v.1.15,2013-01-04 11:01:00,
2013-01-04 06:06:00,35.5,20.9,30.15,WNW,298,9.0,16.0,55,0.00,,,0.00,0,Wunderground v.1.15,2013-01-04 11:06:00,
2013-01-04 06:15:00,35.3,20.7,30.15,NW,311,7.0,17.0,55,0.00,,,0.00,0,Wunderground v.1.15,2013-01-04 11:15:00,
2013-01-04 06:20:00,35.3,21.2,30.15,NW,306,8.0,8.0,56,0.00,,,0.00,0,Wunderground v.1.15,2013-01-04 11:20:00,
2013-01-04 06:26:00,35.2,21.1,30.15,WNW,290,7.0,17.0,56,0.00,,,0.00,0,Wunderground v.1.15,2013-01-04 11:26:00,
2013-01-04 06:31:00,35.0,21.3,30.16,NW,311,5.0,17.0,57,0.00,,,0.00,0,Wunderground v.1.15,2013-01-04 11:31:00,
2013-01-04 06:40:00,34.9,21.2,30.16,WNW,292,5.0,17.0,57,0.00,,,0.00,0,Wunderground v.1.15,2013-01-04 11:40:00,
2013-01-04 06:45:00,34.7,21.0,30.16,WNW,295,5.0,17.0,57,0.00,,,0.00,0,Wunderground v.1.15,2013-01-04 11:45:00,
2013-01-04 06:55:00,34.6,21.3,30.16,WNW,294,5.0,9.0,58,0.00,,,0.00,0,Wunderground v.1.15,2013-01-04 11:55:00,
2013-01-04 07:01:00,34.6,20.9,30.16,WNW,300,5.0,17.0,57,0.00,,,0.00,0,Wunderground v.1.15,2013-01-04 12:01:00,
2013-01-04 07:06:00,34.7,21.0,30.16,NW,306,7.0,17.0,57,0.00,,,0.00,0,Wunderground v.1.15,2013-01-04 12:06:00,
2013-01-04 07:15:00,34.7,21.4,30.16,WNW,299,8.0,17.0,58,0.00,,,0.00,0,Wunderground v.1.15,2013-01-04 12:15:00,
2013-01-04 07:21:00,34.6,21.3,30.16,WNW,292,7.0,16.0,58,0.00,,,0.00,0,Wunderground v.1.15,2013-01-04 12:21:00,
2013-01-04 07:30:00,34.4,21.1,30.17,NW,320,7.0,7.0,58,0.00,,,0.00,5,Wunderground v.1.15,2013-01-04 12:30:00,
2013-01-04 07:35:00,34.6,20.9,30.17,NW,308,7.0,8.0,57,0.00,,,0.00,7,Wunderground v.1.15,2013-01-04 12:35:00,
2013-01-04 07:41:00,34.6,20.9,30.17,WNW,301,8.0,8.0,57,0.00,,,0.00,9,Wunderground v.1.15,2013-01-04 12:41:00,
2013-01-04 07:46:00,34.6,20.9,30.16,WNW,285,8.0,17.0,57,0.00,,,0.00,18,Wunderground v.1.15,2013-01-04 12:46:00,
2013-01-04 07:55:00,34.9,20.8,30.16,NNW,327,8.0,17.0,56,0.00,,,0.00,14,Wunderground v.1.15,2013-01-04 12:55:00,
2013-01-04 08:00:00,34.9,20.8,30.16,WNW,301,8.0,8.0,56,0.00,,,0.00,12,Wunderground v.1.15,2013-01-04 13:00:00,
2013-01-04 08:05:00,34.9,20.8,30.16,NW,315,9.0,13.0,56,0.00,,,0.00,14,Wunderground v.1.15,2013-01-04 13:05:00,
2013-01-04 08:10:00,34.9,20.8,30.16,NW,313,8.0,17.0,56,0.00,,,0.00,19,Wunderground v.1.15,2013-01-04 13:10:00,
2013-01-04 08:16:00,34.9,20.8,30.16,WNW,291,7.0,19.0,56,0.00,,,0.00,16,Wunderground v.1.15,2013-01-04 13:16:00,
2013-01-04 08:21:00,35.0,20.4,30.16,NNW,330,7.0,19.0,55,0.00,,,0.00,16,Wunderground v.1.15,2013-01-04 13:21:00,
2013-01-04 08:31:00,35.0,20.4,30.16,NW,309,8.0,8.0,55,0.00,,,0.00,18,Wunderground v.1.15,2013-01-04 13:31:00,
2013-01-04 08:36:00,35.2,20.2,30.16,WNW,288,9.0,9.0,54,0.00,,,0.00,19,Wunderground v.1.15,2013-01-04 13:36:00,
2013-01-04 08:45:00,35.5,20.5,30.17,NW,315,7.0,20.0,54,0.00,,,0.00,19,Wunderground v.1.15,2013-01-04 13:45:00,
2013-01-04 08:50:00,35.6,20.6,30.17,WNW,293,7.0,7.0,54,0.00,,,0.00,21,Wunderground v.1.15,2013-01-04 13:50:00,
2013-01-04 08:55:00,35.6,20.1,30.17,WNW,287,7.0,14.0,53,0.00,,,0.00,21,Wunderground v.1.15,2013-01-04 13:55:00,
2013-01-04 09:00:00,35.8,19.9,30.17,West,277,8.0,8.0,52,0.00,,,0.00,21,Wunderground v.1.15,2013-01-04 14:00:00,
2013-01-04 09:05:00,35.9,20.0,30.17,WNW,297,7.0,20.0,52,0.00,,,0.00,23,Wunderground v.1.15,2013-01-04 14:05:00,
2013-01-04 09:10:00,35.9,19.5,30.17,WNW,303,8.0,20.0,51,0.00,,,0.00,23,Wunderground v.1.15,2013-01-04 14:10:00,
2013-01-04 09:16:00,36.0,20.1,30.17,WNW,284,9.0,22.0,52,0.00,,,0.00,23,Wunderground v.1.15,2013-01-04 14:16:00,
2013-01-04 09:21:00,36.0,19.6,30.17,WNW,291,9.0,22.0,51,0.00,,,0.00,25,Wunderground v.1.15,2013-01-04 14:21:00,
2013-01-04 09:30:00,36.2,19.8,30.17,WNW,303,9.0,9.0,51,0.00,,,0.00,25,Wunderground v.1.15,2013-01-04 14:30:00,
2013-01-04 09:35:00,36.3,19.9,30.17,West,261,9.0,22.0,51,0.00,,,0.00,26,Wunderground v.1.15,2013-01-04 14:35:00,
2013-01-04 09:40:00,36.5,20.1,30.17,NW,317,7.0,22.0,51,0.00,,,0.00,26,Wunderground v.1.15,2013-01-04 14:40:00,
2013-01-04 09:45:00,36.6,20.2,30.17,NW,304,8.0,22.0,51,0.00,,,0.00,26,Wunderground v.1.15,2013-01-04 14:45:00,
2013-01-04 09:51:00,36.8,20.8,30.17,WNW,294,7.0,20.0,52,0.00,,,0.00,35,Wunderground v.1.15,2013-01-04 14:51:00,
2013-01-04 09:56:00,36.9,20.4,30.17,NW,313,6.0,20.0,51,0.00,,,0.00,49,Wunderground v.1.15,2013-01-04 14:56:00,
2013-01-04 10:01:00,36.9,20.0,30.17,West,272,8.0,8.0,50,0.00,,,0.00,28,Wunderground v.1.15,2013-01-04 15:01:00,
2013-01-04 10:10:00,37.0,20.1,30.17,West,273,7.0,20.0,50,0.00,,,0.00,35,Wunderground v.1.15,2013-01-04 15:10:00,
2013-01-04 10:16:00,37.2,20.2,30.17,WNW,291,9.0,20.0,50,0.00,,,0.00,28,Wunderground v.1.15,2013-01-04 15:16:00,
2013-01-04 10:21:00,37.5,20.1,30.17,West,279,9.0,9.0,49,0.00,,,0.00,30,Wunderground v.1.15,2013-01-04 15:21:00,
2013-01-04 10:26:00,37.6,20.1,30.17,WNW,286,8.0,18.0,49,0.00,,,0.00,32,Wunderground v.1.15,2013-01-04 15:26:00,
2013-01-04 10:31:00,37.6,19.7,30.16,WNW,294,9.0,9.0,48,0.00,,,0.00,72,Wunderground v.1.15,2013-01-04 15:31:00,
2013-01-04 10:40:00,37.6,20.1,30.16,West,279,10.0,18.0,49,0.00,,,0.00,32,Wunderground v.1.15,2013-01-04 15:40:00,
2013-01-04 10:45:00,37.6,19.7,30.16,North,355,12.0,25.0,48,0.00,,,0.00,32,Wunderground v.1.15,2013-01-04 15:45:00,
2013-01-04 10:50:00,37.8,20.8,30.16,NW,305,9.0,9.0,50,0.00,,,0.00,32,Wunderground v.1.15,2013-01-04 15:50:00,
2013-01-04 10:56:00,38.0,20.0,30.16,WNW,300,7.0,25.0,48,0.00,,,0.00,33,Wunderground v.1.15,2013-01-04 15:56:00,
2013-01-04 11:05:00,38.0,20.0,30.16,WNW,298,9.0,25.0,48,0.00,,,0.00,40,Wunderground v.1.15,2013-01-04 16:05:00,
2013-01-04 11:10:00,38.0,21.0,30.16,WNW,288,9.0,9.0,50,0.00,,,0.00,33,Wunderground v.1.15,2013-01-04 16:10:00,
2013-01-04 11:16:00,38.2,21.2,30.15,NW,307,11.0,11.0,50,0.00,,,0.00,35,Wunderground v.1.15,2013-01-04 16:16:00,
2013-01-04 11:21:00,38.3,21.3,30.15,WNW,292,10.0,10.0,50,0.00,,,0.00,54,Wunderground v.1.15,2013-01-04 16:21:00,
2013-01-04 11:30:00,38.6,21.1,30.14,WNW,290,9.0,23.0,49,0.00,,,0.00,46,Wunderground v.1.15,2013-01-04 16:30:00,
2013-01-04 11:35:00,38.8,21.3,30.14,West,271,9.0,23.0,49,0.00,,,0.00,46,Wunderground v.1.15,2013-01-04 16:35:00,
2013-01-04 11:40:00,39.1,21.0,30.14,NW,306,8.0,23.0,48,0.00,,,0.00,35,Wunderground v.1.15,2013-01-04 16:40:00,
2013-01-04 11:46:00,39.2,21.1,30.14,West,279,8.0,23.0,48,0.00,,,0.00,39,Wunderground v.1.15,2013-01-04 16:46:00,
2013-01-04 11:56:00,39.5,21.4,30.14,NNW,345,7.0,20.0,48,0.00,,,0.00,70,Wunderground v.1.15,2013-01-04 16:56:00,
2013-01-04 12:06:00,39.6,21.0,30.13,WNW,283,8.0,20.0,47,0.00,,,0.00,42,Wunderground v.1.15,2013-01-04 17:06:00,
2013-01-04 12:15:00,39.9,21.3,30.12,West,273,6.0,13.0,47,0.00,,,0.00,39,Wunderground v.1.15,2013-01-04 17:15:00,
2013-01-04 12:20:00,39.8,20.7,30.12,WNW,285,9.0,19.0,46,0.00,,,0.00,39,Wunderground v.1.15,2013-01-04 17:20:00,
2013-01-04 12:25:00,39.8,20.2,30.12,WNW,290,10.0,19.0,45,0.00,,,0.00,39,Wunderground v.1.15,2013-01-04 17:25:00,
2013-01-04 12:31:00,39.9,20.8,30.11,West,270,9.0,19.0,46,0.00,,,0.00,46,Wunderground v.1.15,2013-01-04 17:31:00,
2013-01-04 12:36:00,40.1,21.0,30.11,WNW,288,8.0,19.0,46,0.00,,,0.00,51,Wunderground v.1.15,2013-01-04 17:36:00,
2013-01-04 12:41:00,40.3,20.1,30.11,WNW,286,8.0,19.0,44,0.00,,,0.00,70,Wunderground v.1.15,2013-01-04 17:41:00,
2013-01-04 12:50:00,40.6,21.4,30.11,West,266,8.0,8.0,46,0.00,,,0.00,44,Wunderground v.1.15,2013-01-04 17:50:00,
2013-01-04 12:55:00,40.8,20.5,30.11,West,273,7.0,9.0,44,0.00,,,0.00,44,Wunderground v.1.15,2013-01-04 17:55:00,
2013-01-04 13:00:00,40.6,21.4,30.10,West,275,8.0,8.0,46,0.00,,,0.00,46,Wunderground v.1.15,2013-01-04 18:00:00,
2013-01-04 13:05:00,40.9,21.2,30.10,WNW,296,8.0,10.0,45,0.00,,,0.00,42,Wunderground v.1.15,2013-01-04 18:05:00,
2013-01-04 13:10:00,40.9,20.6,30.10,WNW,294,6.0,20.0,44,0.00,,,0.00,40,Wunderground v.1.15,2013-01-04 18:10:00,
2013-01-04 13:16:00,41.8,22.0,30.08,West,269,8.0,20.0,45,0.00,,,0.00,51,Wunderground v.1.15,2013-01-04 18:16:00,
2013-01-04 13:21:00,41.8,20.9,30.08,WSW,254,10.0,10.0,43,0.00,,,0.00,49,Wunderground v.1.15,2013-01-04 18:21:00,
2013-01-04 13:30:00,41.9,41.9,30.08,WNW,300,6.0,17.0,100,0.00,,,0.00,49,Wunderground v.1.15,2013-01-04 18:30:00,
2013-01-04 13:35:00,41.5,21.2,30.08,West,277,6.0,17.0,44,0.00,,,0.00,42,Wunderground v.1.15,2013-01-04 18:35:00,
2013-01-04 13:40:00,41.3,21.0,30.08,West,281,7.0,17.0,44,0.00,,,0.00,40,Wunderground v.1.15,2013-01-04 18:40:00,
2013-01-04 13:45:00,41.1,20.8,30.07,West,262,9.0,19.0,44,0.00,,,0.00,40,Wunderground v.1.15,2013-01-04 18:45:00,
2013-01-04 13:50:00,41.3,20.5,30.07,West,274,7.0,19.0,43,0.00,,,0.00,40,Wunderground v.1.15,2013-01-04 18:50:00,
2013-01-04 13:55:00,41.3,21.0,30.07,WNW,283,7.0,19.0,44,0.00,,,0.00,40,Wunderground v.1.15,2013-01-04 18:55:00,
2013-01-04 14:01:00,41.5,21.2,30.07,WSW,257,6.0,6.0,44,0.00,,,0.00,40,Wunderground v.1.15,2013-01-04 19:01:00,
2013-01-04 14:06:00,41.5,21.2,30.07,West,269,6.0,19.0,44,0.00,,,0.00,42,Wunderground v.1.15,2013-01-04 19:06:00,
2013-01-04 14:11:00,41.6,21.8,30.07,WSW,247,7.0,19.0,45,0.00,,,0.00,42,Wunderground v.1.15,2013-01-04 19:11:00,
2013-01-04 14:20:00,41.5,21.2,30.07,WSW,255,7.0,17.0,44,0.00,,,0.00,40,Wunderground v.1.15,2013-01-04 19:20:00,
2013-01-04 14:25:00,41.5,20.6,30.07,West,279,7.0,17.0,43,0.00,,,0.00,40,Wunderground v.1.15,2013-01-04 19:25:00,
2013-01-04 14:30:00,41.5,21.2,30.07,West,269,8.0,17.0,44,0.00,,,0.00,42,Wunderground v.1.15,2013-01-04 19:30:00,
2013-01-04 14:35:00,41.6,21.3,30.07,West,268,9.0,17.0,44,0.00,,,0.00,42,Wunderground v.1.15,2013-01-04 19:35:00,
2013-01-04 14:41:00,41.6,21.3,30.07,West,277,8.0,8.0,44,0.00,,,0.00,40,Wunderground v.1.15,2013-01-04 19:41:00,
2013-01-04 14:46:00,41.6,21.3,30.07,West,262,8.0,10.0,44,0.00,,,0.00,42,Wunderground v.1.15,2013-01-04 19:46:00,
2013-01-04 14:55:00,41.6,22.3,30.07,West,271,8.0,18.0,46,0.00,,,0.00,93,Wunderground v.1.15,2013-01-04 19:55:00,
2013-01-04 15:00:00,41.6,22.8,30.07,West,270,8.0,18.0,47,0.00,,,0.00,72,Wunderground v.1.15,2013-01-04 20:00:00,
2013-01-04 15:05:00,41.8,22.5,30.07,West,269,7.0,18.0,46,0.00,,,0.00,77,Wunderground v.1.15,2013-01-04 20:05:00,
2013-01-04 15:10:00,42.1,22.8,30.07,WSW,252,8.0,18.0,46,0.00,,,0.00,255,Wunderground v.1.15,2013-01-04 20:10:00,
2013-01-04 15:15:00,42.2,21.3,30.07,WNW,283,9.0,18.0,43,0.00,,,0.00,227,Wunderground v.1.15,2013-01-04 20:15:00,
2013-01-04 15:21:00,42.3,22.4,30.07,WSW,248,8.0,18.0,45,0.00,,,0.00,229,Wunderground v.1.15,2013-01-04 20:21:00,
2013-01-04 15:26:00,42.5,22.6,30.07,WSW,257,8.0,18.0,45,0.00,,,0.00,216,Wunderground v.1.15,2013-01-04 20:26:00,
2013-01-04 15:35:00,42.3,24.0,30.07,West,260,7.0,18.0,48,0.00,,,0.00,193,Wunderground v.1.15,2013-01-04 20:35:00,
2013-01-04 15:40:00,42.3,23.0,30.07,WSW,249,7.0,18.0,46,0.00,,,0.00,179,Wunderground v.1.15,2013-01-04 20:40:00,
2013-01-04 15:45:00,42.2,22.4,30.06,WSW,251,7.0,18.0,45,0.00,,,0.00,167,Wunderground v.1.15,2013-01-04 20:45:00,
2013-01-04 15:50:00,42.2,23.4,30.06,West,265,8.0,8.0,47,0.00,,,0.00,155,Wunderground v.1.15,2013-01-04 20:50:00,
2013-01-04 15:56:00,42.1,22.8,30.06,WSW,255,8.0,9.0,46,0.00,,,0.00,137,Wunderground v.1.15,2013-01-04 20:56:00,
2013-01-04 16:01:00,41.9,23.1,30.06,West,261,8.0,15.0,47,0.00,,,0.00,128,Wunderground v.1.15,2013-01-04 21:01:00,
2013-01-04 16:06:00,41.8,22.5,30.06,West,263,8.0,15.0,46,0.00,,,0.00,88,Wunderground v.1.15,2013-01-04 21:06:00,
2013-01-04 16:15:00,41.5,23.2,30.06,West,269,8.0,13.0,48,0.00,,,0.00,42,Wunderground v.1.15,2013-01-04 21:15:00,
2013-01-04 16:20:00,41.3,22.6,30.06,West,263,7.0,15.0,47,0.00,,,0.00,53,Wunderground v.1.15,2013-01-04 21:20:00,
2013-01-04 16:25:00,41.2,23.0,30.06,WSW,252,7.0,15.0,48,0.00,,,0.00,12,Wunderground v.1.15,2013-01-04 21:25:00,
2013-01-04 16:30:00,40.9,23.2,30.07,West,267,7.0,15.0,49,0.00,,,0.00,19,Wunderground v.1.15,2013-01-04 21:30:00,
2013-01-04 16:36:00,40.9,23.2,30.07,West,261,7.0,15.0,49,0.00,,,0.00,21,Wunderground v.1.15,2013-01-04 21:36:00,
2013-01-04 16:41:00,40.9,23.2,30.07,West,259,9.0,9.0,49,0.00,,,0.00,9,Wunderground v.1.15,2013-01-04 21:41:00,
2013-01-04 16:46:00,40.6,23.4,30.06,WSW,245,9.0,11.0,50,0.00,,,0.00,7,Wunderground v.1.15,2013-01-04 21:46:00,
2013-01-04 16:55:00,40.2,24.0,30.06,WSW,243,7.0,17.0,52,0.00,,,0.00,0,Wunderground v.1.15,2013-01-04 21:55:00,
2013-01-04 17:00:00,40.1,23.9,30.06,WSW,247,7.0,7.0,52,0.00,,,0.00,0,Wunderground v.1.15,2013-01-04 22:00:00,
2013-01-04 17:06:00,40.1,23.9,30.06,West,270,7.0,8.0,52,0.00,,,0.00,0,Wunderground v.1.15,2013-01-04 22:06:00,
2013-01-04 17:11:00,40.1,23.4,30.06,WSW,250,7.0,7.0,51,0.00,,,0.00,0,Wunderground v.1.15,2013-01-04 22:11:00,
2013-01-04 17:20:00,40.3,23.6,30.05,WSW,256,6.0,13.0,51,0.00,,,0.00,0,Wunderground v.1.15,2013-01-04 22:20:00,
2013-01-04 17:25:00,40.3,23.6,30.05,WSW,248,7.0,13.0,51,0.00,,,0.00,0,Wunderground v.1.15,2013-01-04 22:25:00,
2013-01-04 17:31:00,40.3,24.1,30.06,WSW,254,6.0,13.0,52,0.00,,,0.00,0,Wunderground v.1.15,2013-01-04 22:31:00,
2013-01-04 17:40:00,40.5,23.8,30.06,WSW,255,6.0,13.0,51,0.00,,,0.00,0,Wunderground v.1.15,2013-01-04 22:40:00,
2013-01-04 17:46:00,40.6,23.9,30.07,West,266,8.0,15.0,51,0.00,,,0.00,0,Wunderground v.1.15,2013-01-04 22:46:00,
2013-01-04 17:51:00,40.5,23.8,30.07,West,261,8.0,15.0,51,0.00,,,0.00,0,Wunderground v.1.15,2013-01-04 22:51:00,
2013-01-04 17:56:00,40.6,23.9,30.07,West,263,7.0,15.0,51,0.00,,,0.00,0,Wunderground v.1.15,2013-01-04 22:56:00,
2013-01-04 18:01:00,40.8,24.1,30.06,West,268,7.0,15.0,51,0.00,,,0.00,0,Wunderground v.1.15,2013-01-04 23:01:00,
2013-01-04 18:10:00,40.8,24.1,30.06,WSW,257,7.0,15.0,51,0.00,,,0.00,0,Wunderground v.1.15,2013-01-04 23:10:00,
2013-01-04 18:16:00,40.8,24.1,30.07,West,279,8.0,16.0,51,0.00,,,0.00,0,Wunderground v.1.15,2013-01-04 23:16:00,
2013-01-04 18:26:00,40.8,23.6,30.07,West,277,9.0,16.0,50,0.00,,,0.00,0,Wunderground v.1.15,2013-01-04 23:26:00,
2013-01-04 18:36:00,40.5,24.2,30.07,West,266,7.0,16.0,52,0.00,,,0.00,0,Wunderground v.1.15,2013-01-04 23:36:00,
2013-01-04 18:45:00,40.3,24.1,30.07,WNW,295,6.0,17.0,52,0.00,,,0.00,0,Wunderground v.1.15,2013-01-04 23:45:00,
2013-01-04 18:51:00,40.3,24.1,30.07,West,267,8.0,8.0,52,0.00,,,0.00,0,Wunderground v.1.15,2013-01-04 23:51:00,
2013-01-04 18:56:00,40.3,24.5,30.07,West,266,7.0,17.0,53,0.00,,,0.00,0,Wunderground v.1.15,2013-01-04 23:56:00,
2013-01-04 19:05:00,40.1,24.3,30.08,West,271,6.0,17.0,53,0.00,,,0.00,0,Wunderground v.1.15,2013-01-05 00:05:00,
2013-01-04 19:10:00,39.9,24.1,30.08,WNW,292,5.0,17.0,53,0.00,,,0.00,0,Wunderground v.1.15,2013-01-05 00:10:00,
2013-01-04 19:15:00,39.8,24.0,30.08,WNW,286,5.0,17.0,53,0.00,,,0.00,0,Wunderground v.1.15,2013-01-05 00:15:00,
2013-01-04 19:21:00,39.6,23.9,30.08,WNW,301,5.0,14.0,53,0.00,,,0.00,0,Wunderground v.1.15,2013-01-05 00:21:00,
2013-01-04 19:26:00,39.5,24.2,30.08,WNW,284,5.0,14.0,54,0.00,,,0.00,0,Wunderground v.1.15,2013-01-05 00:26:00,
2013-01-04 19:31:00,39.6,24.3,30.09,WNW,282,4.0,4.0,54,0.00,,,0.00,0,Wunderground v.1.15,2013-01-05 00:31:00,
2013-01-04 19:40:00,39.3,24.5,30.09,WNW,283,4.0,14.0,55,0.00,,,0.00,0,Wunderground v.1.15,2013-01-05 00:40:00,
2013-01-04 19:45:00,39.1,24.3,30.10,West,280,5.0,14.0,55,0.00,,,0.00,0,Wunderground v.1.15,2013-01-05 00:45:00,
2013-01-04 19:50:00,38.9,23.2,30.10,West,263,5.0,11.0,53,0.00,,,0.00,0,Wunderground v.1.15,2013-01-05 00:50:00,
2013-01-04 19:55:00,39.1,22.9,30.10,WNW,290,5.0,11.0,52,0.00,,,0.00,0,Wunderground v.1.15,2013-01-05 00:55:00,
2013-01-04 20:00:00,39.1,22.9,30.10,WNW,283,5.0,11.0,52,0.00,,,0.00,0,Wunderground v.1.15,2013-01-05 01:00:00,
2013-01-04 20:06:00,39.1,22.9,30.10,WNW,292,4.0,11.0,52,0.00,,,0.00,0,Wunderground v.1.15,2013-01-05 01:06:00,
2013-01-04 20:11:00,38.9,22.8,30.10,WNW,296,3.0,11.0,52,0.00,,,0.00,0,Wunderground v.1.15,2013-01-05 01:11:00,
2013-01-04 20:20:00,38.9,21.8,30.11,WNW,290,5.0,12.0,50,0.00,,,0.00,0,Wunderground v.1.15,2013-01-05 01:20:00,
2013-01-04 20:25:00,38.9,21.8,30.11,WNW,299,6.0,12.0,50,0.00,,,0.00,0,Wunderground v.1.15,2013-01-05 01:25:00,
2013-01-04 20:30:00,39.2,20.6,30.11,WNW,288,6.0,12.0,47,0.00,,,0.00,0,Wunderground v.1.15,2013-01-05 01:30:00,
2013-01-04 20:35:00,39.2,20.6,30.11,NW,305,7.0,12.0,47,0.00,,,0.00,0,Wunderground v.1.15,2013-01-05 01:35:00,
2013-01-04 20:40:00,39.3,20.7,30.11,West,280,7.0,7.0,47,0.00,,,0.00,0,Wunderground v.1.15,2013-01-05 01:40:00,
2013-01-04 20:46:00,39.3,20.7,30.11,West,261,7.0,12.0,47,0.00,,,0.00,0,Wunderground v.1.15,2013-01-05 01:46:00,
2013-01-04 20:55:00,39.3,20.7,30.11,WNW,284,9.0,11.0,47,0.00,,,0.00,0,Wunderground v.1.15,2013-01-05 01:55:00,
2013-01-04 21:01:00,39.3,20.2,30.11,WNW,297,9.0,9.0,46,0.00,,,0.00,0,Wunderground v.1.15,2013-01-05 02:01:00,
2013-01-04 21:06:00,39.5,19.9,30.11,WNW,289,10.0,13.0,45,0.00,,,0.00,0,Wunderground v.1.15,2013-01-05 02:06:00,
2013-01-04 21:15:00,39.3,19.7,30.11,West,281,10.0,24.0,45,0.00,,,0.00,0,Wunderground v.1.15,2013-01-05 02:15:00,
2013-01-04 21:20:00,39.3,19.7,30.11,WNW,296,9.0,24.0,45,0.00,,,0.00,0,Wunderground v.1.15,2013-01-05 02:20:00,
2013-01-04 21:25:00,39.3,19.7,30.11,WNW,286,10.0,24.0,45,0.00,,,0.00,0,Wunderground v.1.15,2013-01-05 02:25:00,
2013-01-04 21:31:00,39.2,19.6,30.11,NNW,336,10.0,24.0,45,0.00,,,0.00,0,Wunderground v.1.15,2013-01-05 02:31:00,
2013-01-04 21:36:00,38.9,19.9,30.11,West,265,9.0,24.0,46,0.00,,,0.00,0,Wunderground v.1.15,2013-01-05 02:36:00,
2013-01-04 21:41:00,38.9,19.3,30.11,WNW,293,8.0,8.0,45,0.00,,,0.00,0,Wunderground v.1.15,2013-01-05 02:41:00,
2013-01-04 21:50:00,38.8,19.2,30.12,WNW,299,7.0,21.0,45,0.00,,,0.00,0,Wunderground v.1.15,2013-01-05 02:50:00,
2013-01-04 21:55:00,38.6,19.6,30.12,WNW,302,7.0,21.0,46,0.00,,,0.00,0,Wunderground v.1.15,2013-01-05 02:55:00,
2013-01-04 22:00:00,38.5,20.0,30.13,WNW,292,6.0,6.0,47,0.00,,,0.00,0,Wunderground v.1.15,2013-01-05 03:00:00,
2013-01-04 22:10:00,38.3,19.8,30.13,West,274,8.0,8.0,47,0.00,,,0.00,0,Wunderground v.1.15,2013-01-05 03:10:00,
2013-01-04 22:15:00,38.3,19.8,30.12,WNW,286,9.0,10.0,47,0.00,,,0.00,0,Wunderground v.1.15,2013-01-05 03:15:00,
2013-01-04 22:21:00,38.2,20.2,30.12,West,275,8.0,8.0,48,0.00,,,0.00,0,Wunderground v.1.15,2013-01-05 03:21:00,
2013-01-04 22:26:00,38.2,19.7,30.12,WNW,290,7.0,16.0,47,0.00,,,0.00,0,Wunderground v.1.15,2013-01-05 03:26:00,
2013-01-04 22:35:00,38.0,19.5,30.13,WNW,286,8.0,16.0,47,0.00,,,0.00,0,Wunderground v.1.15,2013-01-05 03:35:00,
2013-01-04 22:40:00,38.0,20.0,30.13,WNW,290,8.0,8.0,48,0.00,,,0.00,0,Wunderground v.1.15,2013-01-05 03:40:00,
2013-01-04 22:45:00,38.0,20.0,30.13,WNW,293,8.0,11.0,48,0.00,,,0.00,0,Wunderground v.1.15,2013-01-05 03:45:00,
2013-01-04 22:50:00,37.9,19.9,30.13,West,274,8.0,20.0,48,0.00,,,0.00,0,Wunderground v.1.15,2013-01-05 03:50:00,
2013-01-04 22:55:00,37.9,20.4,30.13,West,281,8.0,20.0,49,0.00,,,0.00,0,Wunderground v.1.15,2013-01-05 03:55:00,
2013-01-04 23:01:00,37.8,20.8,30.14,West,279,6.0,20.0,50,0.00,,,0.00,0,Wunderground v.1.15,2013-01-05 04:01:00,
2013-01-04 23:10:00,37.8,20.8,30.14,WNW,284,7.0,20.0,50,0.00,,,0.00,0,Wunderground v.1.15,2013-01-05 04:10:00,
2013-01-04 23:15:00,37.6,20.1,30.14,WNW,296,6.0,20.0,49,0.00,,,0.00,0,Wunderground v.1.15,2013-01-05 04:15:00,
2013-01-04 23:20:00,37.5,20.5,30.14,WNW,283,6.0,17.0,50,0.00,,,0.00,0,Wunderground v.1.15,2013-01-05 04:20:00,
2013-01-04 23:25:00,37.5,20.5,30.14,WNW,284,5.0,17.0,50,0.00,,,0.00,0,Wunderground v.1.15,2013-01-05 04:25:00,
2013-01-04 23:31:00,37.3,20.3,30.13,West,271,5.0,5.0,50,0.00,,,0.00,0,Wunderground v.1.15,2013-01-05 04:31:00,
2013-01-04 23:36:00,37.3,20.8,30.13,WNW,284,5.0,17.0,51,0.00,,,0.00,0,Wunderground v.1.15,2013-01-05 04:36:00,
2013-01-04 23:45:00,37.0,21.0,30.13,West,277,4.0,9.0,52,0.00,,,0.00,0,Wunderground v.1.15,2013-01-05 04:45:00,
2013-01-04 23:50:00,37.0,20.5,30.13,WSW,255,5.0,5.0,51,0.00,,,0.00,0,Wunderground v.1.15,2013-01-05 04:50:00,
2013-01-04 23:56:00,37.0,20.5,30.13,West,277,5.0,14.0,51,0.00,,,0.00,0,Wunderground v.1.15,2013-01-05 04:56:00,